OMA642 OKKK-OOMS

Flight info

Callsign OMA642
Flight time N/A
Altitude 39000
Route SESRU M677 OBNET DCT IVOXI DCT ANVIX L223 TARDI/N0454F330 N629 MUSUK T511 MCT
Aircraft B738/M-SDE2E3FGHIRWXY/LB1

Departure

Time 2026-05-09 09:44
Airport Kuwait International Airport (OKKK)

Arrival

Time N/A
Airport Muscat International Airport (OOMS)
Time Latitude Longitude Altitude Speed Heading
2026-05-09 09:21 29.23802 47.97301 169 ft 0 kts 245°
2026-05-09 09:33 29.23803 47.97303 196 ft 2 kts 245°
2026-05-09 09:33 29.23814 47.97330 169 ft 4 kts 245°
2026-05-09 09:33 29.23824 47.97354 169 ft 2 kts 246°
2026-05-09 09:34 29.23837 47.97376 169 ft 4 kts 205°
2026-05-09 09:34 29.23860 47.97377 169 ft 4 kts 160°
2026-05-09 09:34 29.23871 47.97373 169 ft 1 kts 154°
2026-05-09 09:36 29.23870 47.97373 169 ft 1 kts 154°
2026-05-09 09:36 29.23844 47.97387 169 ft 9 kts 154°
2026-05-09 09:37 29.23757 47.97434 169 ft 18 kts 155°
2026-05-09 09:37 29.23643 47.97420 169 ft 19 kts 240°
2026-05-09 09:37 29.23592 47.97288 169 ft 18 kts 246°
2026-05-09 09:37 29.23542 47.97160 169 ft 17 kts 244°
2026-05-09 09:38 29.23492 47.97040 169 ft 17 kts 246°
2026-05-09 09:38 29.23501 47.96911 168 ft 16 kts 279°
2026-05-09 09:38 29.23521 47.96788 168 ft 15 kts 279°
2026-05-09 09:38 29.23485 47.96706 166 ft 13 kts 167°
2026-05-09 09:39 29.23406 47.96746 167 ft 13 kts 154°
2026-05-09 09:39 29.23316 47.96793 167 ft 16 kts 156°
2026-05-09 09:39 29.23189 47.96859 165 ft 24 kts 155°
2026-05-09 09:39 29.23021 47.96949 167 ft 29 kts 155°
2026-05-09 09:40 29.22829 47.97049 166 ft 30 kts 155°
2026-05-09 09:40 29.22642 47.97149 165 ft 29 kts 155°
2026-05-09 09:40 29.22467 47.97244 165 ft 27 kts 155°
2026-05-09 09:40 29.22301 47.97332 165 ft 25 kts 155°
2026-05-09 09:41 29.22147 47.97413 164 ft 23 kts 155°
2026-05-09 09:41 29.22005 47.97489 164 ft 23 kts 155°
2026-05-09 09:41 29.21865 47.97565 164 ft 22 kts 155°
2026-05-09 09:41 29.21728 47.97637 164 ft 21 kts 155°
2026-05-09 09:42 29.21596 47.97706 165 ft 21 kts 155°
2026-05-09 09:42 29.21467 47.97774 166 ft 20 kts 155°
2026-05-09 09:42 29.21343 47.97840 167 ft 19 kts 155°
2026-05-09 09:42 29.21242 47.97793 167 ft 19 kts 253°
2026-05-09 09:43 29.21291 47.97662 166 ft 18 kts 304°
2026-05-09 09:43 29.21384 47.97571 165 ft 18 kts 335°
2026-05-09 09:43 29.21508 47.97504 163 ft 34 kts 335°
2026-05-09 09:43 29.21962 47.97265 164 ft 108 kts 335°
2026-05-09 09:44 29.22827 47.96815 280 ft 156 kts 338°
2026-05-09 09:44 29.23848 47.96274 1047 ft 163 kts 337°
2026-05-09 09:44 29.24884 47.95709 1888 ft 168 kts 336°
2026-05-09 09:44 29.26013 47.95099 2346 ft 194 kts 337°
2026-05-09 09:45 29.27321 47.94411 2593 ft 220 kts 337°
2026-05-09 09:45 29.28821 47.93806 2828 ft 244 kts 357°
2026-05-09 09:45 29.30479 47.94301 3427 ft 257 kts 30°
2026-05-09 09:45 29.31735 47.95773 4324 ft 265 kts 57°
2026-05-09 09:46 29.32304 47.97838 4998 ft 283 kts 84°
2026-05-09 09:46 29.32159 48.00108 5789 ft 290 kts 98°
2026-05-09 09:46 29.31750 48.02402 6576 ft 295 kts 102°
2026-05-09 09:46 29.31277 48.04702 7358 ft 300 kts 103°
2026-05-09 09:47 29.30792 48.07052 8092 ft 306 kts 103°
2026-05-09 09:47 29.30309 48.09446 8857 ft 312 kts 103°
2026-05-09 09:47 29.29829 48.11890 9629 ft 317 kts 103°
2026-05-09 09:47 29.29352 48.14378 10313 ft 325 kts 103°
2026-05-09 09:48 29.28863 48.16962 10530 ft 349 kts 103°
2026-05-09 09:48 29.28337 48.19772 10755 ft 370 kts 103°
2026-05-09 09:48 29.27795 48.22694 11250 ft 380 kts 103°
2026-05-09 09:48 29.27247 48.25668 11923 ft 384 kts 103°
2026-05-09 09:49 29.26693 48.28681 12655 ft 387 kts 103°
2026-05-09 09:49 29.26135 48.31716 13361 ft 392 kts 103°
2026-05-09 09:49 29.25568 48.34793 14030 ft 397 kts 103°
2026-05-09 09:49 29.24994 48.37903 14694 ft 401 kts 103°
2026-05-09 09:50 29.24413 48.41047 15412 ft 404 kts 103°
2026-05-09 09:50 29.23830 48.44203 16116 ft 408 kts 103°
2026-05-09 09:50 29.23238 48.47397 16801 ft 412 kts 102°
2026-05-09 09:50 29.22647 48.50580 17458 ft 416 kts 102°
2026-05-09 09:51 29.22041 48.53842 18130 ft 421 kts 102°
2026-05-09 09:51 29.21429 48.57131 18725 ft 425 kts 102°
2026-05-09 09:51 29.20809 48.60456 19297 ft 429 kts 102°
2026-05-09 09:51 29.20184 48.63805 19865 ft 433 kts 102°
2026-05-09 09:52 29.19552 48.67185 20448 ft 436 kts 102°
2026-05-09 09:52 29.18914 48.70597 21026 ft 440 kts 102°
2026-05-09 09:52 29.18270 48.74030 21590 ft 443 kts 102°
2026-05-09 09:52 29.17620 48.77493 22140 ft 447 kts 102°
2026-05-09 09:53 29.16963 48.80994 22679 ft 450 kts 101°
2026-05-09 09:53 29.16300 48.84516 23202 ft 454 kts 101°
2026-05-09 09:53 29.15508 48.88023 23659 ft 458 kts 110°
2026-05-09 09:53 29.14137 48.91269 24108 ft 459 kts 123°
2026-05-09 09:54 29.12226 48.94183 24595 ft 457 kts 135°
2026-05-09 09:54 29.09890 48.96630 25086 ft 455 kts 142°
2026-05-09 09:54 29.07450 48.98953 25534 ft 457 kts 143°
2026-05-09 09:54 29.04981 49.01274 25964 ft 459 kts 144°
2026-05-09 09:55 29.02513 49.03614 26393 ft 462 kts 143°
2026-05-09 09:55 29.00052 49.05978 26826 ft 463 kts 143°
2026-05-09 09:55 28.97589 49.08367 27256 ft 465 kts 143°
2026-05-09 09:55 28.95123 49.10770 27673 ft 466 kts 143°
2026-05-09 09:56 28.92649 49.13183 28101 ft 468 kts 144°
2026-05-09 09:56 28.90173 49.15595 28488 ft 469 kts 144°
2026-05-09 09:56 28.87680 49.18017 28878 ft 471 kts 144°
2026-05-09 09:56 28.85205 49.20481 29254 ft 473 kts 143°
2026-05-09 09:57 28.82753 49.22993 29619 ft 475 kts 143°
2026-05-09 09:57 28.80296 49.25534 29979 ft 477 kts 143°
2026-05-09 09:57 28.77868 49.28044 30262 ft 478 kts 144°
2026-05-09 09:57 28.75360 49.30626 30547 ft 480 kts 144°
2026-05-09 09:58 28.72880 49.33169 30812 ft 481 kts 144°
2026-05-09 09:58 28.70415 49.35689 31086 ft 482 kts 145°
2026-05-09 09:58 28.67912 49.38244 31438 ft 481 kts 146°
2026-05-09 09:58 28.65428 49.40780 31861 ft 479 kts 146°
2026-05-09 09:59 28.62954 49.43305 32283 ft 477 kts 146°
2026-05-09 09:59 28.60615 49.46025 32635 ft 485 kts 138°
2026-05-09 09:59 28.58617 49.49169 32948 ft 495 kts 130°
2026-05-09 09:59 28.56839 49.52538 33284 ft 497 kts 128°
2026-05-09 10:00 28.55106 49.55931 33613 ft 497 kts 128°
2026-05-09 10:00 28.53368 49.59325 33923 ft 496 kts 129°
2026-05-09 10:00 28.51615 49.62695 34219 ft 495 kts 130°
2026-05-09 10:00 28.49843 49.66050 34515 ft 493 kts 130°
2026-05-09 10:01 28.48091 49.69335 34809 ft 492 kts 130°
2026-05-09 10:01 28.46315 49.72659 35088 ft 491 kts 131°
2026-05-09 10:01 28.44540 49.75979 35353 ft 491 kts 131°
2026-05-09 10:01 28.42651 49.79167 35606 ft 480 kts 139°
2026-05-09 10:02 28.40441 49.81940 35870 ft 467 kts 147°
2026-05-09 10:02 28.37987 49.84276 36139 ft 452 kts 157°
2026-05-09 10:02 28.35382 49.86244 36445 ft 448 kts 158°
2026-05-09 10:02 28.32775 49.88181 36717 ft 447 kts 158°
2026-05-09 10:03 28.30173 49.90114 36974 ft 447 kts 158°
2026-05-09 10:03 28.27582 49.92050 37235 ft 446 kts 158°
2026-05-09 10:03 28.24994 49.93996 37502 ft 446 kts 158°
2026-05-09 10:03 28.22414 49.95944 37759 ft 445 kts 158°
2026-05-09 10:04 28.19840 49.97893 38024 ft 444 kts 158°
2026-05-09 10:04 28.17277 49.99836 38269 ft 443 kts 158°
2026-05-09 10:04 28.14709 50.01781 38497 ft 443 kts 158°
2026-05-09 10:04 28.12149 50.03719 38697 ft 443 kts 158°
2026-05-09 10:05 28.09595 50.05652 38899 ft 441 kts 158°
2026-05-09 10:05 28.04490 50.09505 38940 ft 445 kts 158°
2026-05-09 10:06 27.99353 50.13386 38933 ft 442 kts 158°
2026-05-09 10:06 27.94247 50.17239 38934 ft 439 kts 158°
2026-05-09 10:07 27.89166 50.21066 38931 ft 437 kts 158°
2026-05-09 10:07 27.84100 50.24874 38929 ft 436 kts 158°
2026-05-09 10:08 27.79041 50.28673 38938 ft 437 kts 158°
2026-05-09 10:08 27.73998 50.32456 38936 ft 439 kts 158°
2026-05-09 10:09 27.68899 50.36279 38935 ft 441 kts 158°
2026-05-09 10:09 27.64632 50.39475 38935 ft 444 kts 158°
2026-05-09 10:10 27.59490 50.43365 38934 ft 447 kts 157°
2026-05-09 10:10 27.54342 50.47354 38933 ft 450 kts 156°
2026-05-09 10:11 27.49167 50.51359 38934 ft 451 kts 156°
2026-05-09 10:11 27.43972 50.55357 38927 ft 452 kts 156°
2026-05-09 10:12 27.38765 50.59334 38923 ft 452 kts 156°
2026-05-09 10:12 27.33596 50.63273 38921 ft 451 kts 156°
2026-05-09 10:13 27.28405 50.67227 38921 ft 450 kts 156°
2026-05-09 10:13 27.23227 50.71170 38919 ft 449 kts 156°
2026-05-09 10:14 27.18064 50.75096 38917 ft 447 kts 156°
2026-05-09 10:14 27.13083 50.79369 38921 ft 461 kts 146°
2026-05-09 10:15 27.08592 50.84534 38914 ft 463 kts 144°
2026-05-09 10:15 27.04101 50.89701 38920 ft 461 kts 145°
2026-05-09 10:16 26.99676 50.94927 38909 ft 469 kts 137°
2026-05-09 10:16 26.96099 51.01185 38920 ft 479 kts 130°
2026-05-09 10:17 26.92676 51.07593 38914 ft 478 kts 130°
2026-05-09 10:17 26.89200 51.13892 38912 ft 478 kts 131°
2026-05-09 10:18 26.86159 51.20596 38909 ft 493 kts 117°
2026-05-09 10:18 26.84016 51.27941 38905 ft 496 kts 115°
2026-05-09 10:19 26.81920 51.35305 38903 ft 495 kts 116°
2026-05-09 10:19 26.79760 51.42621 38906 ft 495 kts 116°
2026-05-09 10:20 26.77569 51.49920 38902 ft 494 kts 116°
2026-05-09 10:20 26.75393 51.57166 38888 ft 494 kts 116°
2026-05-09 10:21 26.73202 51.64456 38888 ft 493 kts 116°
2026-05-09 10:21 26.70998 51.71722 38894 ft 492 kts 116°
2026-05-09 10:22 26.68799 51.78972 38885 ft 491 kts 116°
2026-05-09 10:22 26.66611 51.86206 38881 ft 490 kts 116°
2026-05-09 10:23 26.64402 51.93398 38879 ft 488 kts 117°
2026-05-09 10:23 26.62094 52.00476 38875 ft 487 kts 118°
2026-05-09 10:24 26.59753 52.07571 38877 ft 486 kts 118°
2026-05-09 10:24 26.57429 52.14656 38876 ft 485 kts 117°
2026-05-09 10:25 26.55111 52.21744 38872 ft 485 kts 117°
2026-05-09 10:25 26.52791 52.28827 38870 ft 485 kts 117°
2026-05-09 10:26 26.50467 52.35908 38871 ft 485 kts 117°
2026-05-09 10:26 26.48144 52.42967 38865 ft 485 kts 117°
2026-05-09 10:27 26.45831 52.49987 38863 ft 485 kts 117°
2026-05-09 10:27 26.43494 52.57066 38859 ft 485 kts 117°
2026-05-09 10:28 26.41155 52.64142 38859 ft 485 kts 117°
2026-05-09 10:28 26.38839 52.71214 38859 ft 486 kts 117°
2026-05-09 10:29 26.36516 52.78316 38850 ft 486 kts 117°
2026-05-09 10:29 26.34194 52.85341 38851 ft 486 kts 117°
2026-05-09 10:30 26.31827 52.92401 38854 ft 486 kts 117°
2026-05-09 10:30 26.29455 52.99465 38850 ft 486 kts 117°
2026-05-09 10:31 26.27086 53.06522 38845 ft 486 kts 117°
2026-05-09 10:31 26.24720 53.13564 38845 ft 485 kts 117°
2026-05-09 10:32 26.22350 53.20603 38844 ft 485 kts 117°
2026-05-09 10:32 26.19998 53.27577 38838 ft 484 kts 117°
2026-05-09 10:33 26.17590 53.34569 38834 ft 482 kts 119°
2026-05-09 10:33 26.14867 53.41351 38834 ft 479 kts 121°
2026-05-09 10:34 26.12065 53.48068 38831 ft 478 kts 121°
2026-05-09 10:34 26.07925 53.58174 38831 ft 478 kts 120°
2026-05-09 10:35 26.05190 53.64893 38827 ft 477 kts 120°
2026-05-09 10:35 26.02447 53.71616 38824 ft 477 kts 120°
2026-05-09 10:36 25.99637 53.78283 38823 ft 475 kts 123°
2026-05-09 10:36 25.96582 53.84769 38822 ft 473 kts 124°
2026-05-09 10:37 25.93474 53.91223 38817 ft 473 kts 124°
2026-05-09 10:37 25.90413 53.97639 38822 ft 474 kts 123°
2026-05-09 10:38 25.87343 54.04120 38819 ft 474 kts 123°
2026-05-09 10:38 25.84273 54.10607 38823 ft 474 kts 123°
2026-05-09 10:39 25.81208 54.17076 38819 ft 474 kts 123°
2026-05-09 10:39 25.78129 54.23560 38824 ft 474 kts 123°
2026-05-09 10:40 25.75054 54.30026 38818 ft 474 kts 123°
2026-05-09 10:40 25.71971 54.36499 38821 ft 474 kts 123°
2026-05-09 10:41 25.68909 54.42919 38824 ft 474 kts 123°
2026-05-09 10:41 25.65827 54.49371 38826 ft 473 kts 123°
2026-05-09 10:42 25.62739 54.55827 38823 ft 473 kts 123°
2026-05-09 10:42 25.59657 54.62262 38820 ft 472 kts 123°
2026-05-09 10:43 25.56575 54.68687 38824 ft 472 kts 123°
2026-05-09 10:43 25.53492 54.75103 38823 ft 471 kts 122°
2026-05-09 10:44 25.50431 54.81468 38826 ft 471 kts 122°
2026-05-09 10:44 25.47351 54.87861 38829 ft 470 kts 122°
2026-05-09 10:46 25.39656 55.03794 38824 ft 469 kts 122°
2026-05-09 10:46 25.36576 55.10156 38816 ft 468 kts 122°
2026-05-09 10:47 25.33501 55.16501 38809 ft 468 kts 122°
2026-05-09 10:47 25.30424 55.22839 38805 ft 468 kts 122°
2026-05-09 10:48 25.27348 55.29169 38800 ft 468 kts 122°
2026-05-09 10:48 25.24283 55.35468 38802 ft 468 kts 122°
2026-05-09 10:49 25.21124 55.41754 38794 ft 466 kts 127°
2026-05-09 10:49 25.16999 55.47187 38810 ft 460 kts 137°
2026-05-09 10:50 25.12623 55.52355 38816 ft 460 kts 137°